Regional Weather Roundup
Issued by NWS

Home | Current Version | Previous Version | Text Only | Print | Product List | Glossary Off
Versions: 1 2 3 4 5 6 7 8 9 10 11 12 13 14 15 16 17 18 19 20 21 22 23 24 25 26 27 28 29 30 31 32 33 34 35 36 37 38 39 40 41 42 43 44 45 46 47 48 49 50

000
ASUS43 KOAX 231510
RWRNE

WEATHER ROUNDUP FOR NEBRASKA
NATIONAL WEATHER SERVICE OMAHA NE
900 AM CST FRI FEB 23 2018

NOTES: SATELLITE DATA IS BEING USED TO AUGMENT CLOUD COVER ABOVE
       12000 FEET.
       "FAIR" INDICATES FEW OR NO CLOUDS BELOW 12,000 FEET WITH NO
       SIGNIFICANT WEATHER AND/OR OBSTRUCTIONS TO VISIBILITY.


NEZ001>004-019>022-054>056-231600-
NEBRASKA PANHANDLE

CITY           SKY/WX    TMP DP  RH WIND       PRES   REMARKS
SCOTTSBLUFF    MOSUNNY    7   2  80 N6        30.14R WCI  -3
ALLIANCE       PTSUNNY    0  -3  87 NW6       30.13R WCI -12
CHADRON        SUNNY     -6 -11  79 SW5       30.21R WCI -17
GORDON         FAIR      -3  -7  82 W5        30.16R WCI -13
KIMBALL        SUNNY     11   6  81 CALM      30.07R
SIDNEY         SUNNY     17  12  80 NW6       30.11S HAZE    WCI   9
$$

NEZ057>060-069>072-079>082-231600-
SOUTHWEST NEBRASKA

CITY           SKY/WX    TMP DP  RH WIND       PRES   REMARKS
NORTH PLATTE   MOSUNNY   10   4  76 NW7       30.21R HAZE    WCI  -1
IMPERIAL       SUNNY     18  16  92 N7        30.16S WCI   9
LEXINGTON      SUNNY     14  11  88 NW9       30.21R WCI   2
MCCOOK         FOG       18  18 100 NW5       30.20R VSB 1/4 WCI  11
OGALLALA       SUNNY     13  10  88 CALM      30.19R
$$

NEZ005>010-023>029-035>040-094-231600-
NORTH CENTRAL NEBRASKA

CITY           SKY/WX    TMP DP  RH WIND       PRES   REMARKS
VALENTINE      SUNNY      3  -2  79 W7        30.22R WCI  -9
AINSWORTH      SUNNY      7   5  91 NW6       30.22R WCI  -3
BROKEN BOW     CLOUDY    17  14  88 N10       30.21R WCI   5
O`NEILL        CLOUDY    17  16  95 NW13      30.24R WCI   4
ORD            CLOUDY    17  15  92 NW8       30.22R WCI   7
THEDFORD         N/A     11   7  85 CALM      30.21R
$$

NEZ041-046>049-061>064-073>077-083>087-231600-
SOUTH CENTRAL NEBRASKA

CITY           SKY/WX    TMP DP  RH WIND       PRES   REMARKS
GRAND ISLAND   SUNNY     18  13  80 N14       30.22R WCI   4
AURORA         SUNNY     18  15  86 N10       30.22R WCI   7
HASTINGS       SUNNY     21  16  81 N13       30.23R WCI   9
HEBRON         MOSUNNY   25  21  84 NW5       30.28R WCI  19
HOLDREGE       SUNNY     20  19  99 NW5       30.20R WCI  13
KEARNEY        SUNNY     20  17  88 N14       30.22  WCI   7
YORK           SUNNY     18  18 100 N8        30.24R WCI   7
$$

NEZ011>018-030>034-042>045-231600-
NORTHEAST NEBRASKA

CITY           SKY/WX    TMP DP  RH WIND       PRES   REMARKS
NORFOLK        CLOUDY    20  18  92 NW10      30.24R WCI   9
ALBION         CLOUDY    21  19  92 N12       30.24R WCI   9
BLAIR          SUNNY     22  20  93 NW8       30.24R WCI  12
COLUMBUS       CLOUDY    21  19  92 NW14      30.26R WCI   8
FREMONT        SUNNY     20  19  97 NW7       30.26R WCI  11
TEKAMAH        SUNNY     20  16  84 NW15      30.26R WCI   6
WAYNE          CLOUDY    19  18  96 NW9       30.26R WCI   7
$$

NEZ050>053-065>068-078-088>093-231600-
SOUTHEAST NEBRASKA

CITY           SKY/WX    TMP DP  RH WIND       PRES   REMARKS
LINCOLN        SUNNY     24  19  81 N12       30.26R WCI  13
OMAHA EPPLEY   MOSUNNY   24  20  84 N6        30.26R FOG     WCI  17
BEATRICE       CLOUDY    26  22  87 CALM      30.28R
FALLS CITY     SUNNY     30  26  85 W7        30.29R WCI  23
NEBRASKA CITY  CLOUDY    26  26 100 CALM      30.27R FOG
PLATTSMOUTH    CLOUDY    23  23  99 NW5       30.24S FOG     WCI  17
$$

NEZ044-045-051>053-067-231600-
OMAHA AREA

CITY           SKY/WX    TMP DP  RH WIND       PRES   REMARKS
OMAHA EPPLEY   MOSUNNY   24  20  84 N6        30.26R FOG     WCI  17
BLAIR          SUNNY     22  20  93 NW8       30.24R WCI  12
FREMONT        SUNNY     20  19  97 NW7       30.26R WCI  11
MILLARD        SUNNY     26  21  82 NW9       30.27R WCI  17
OFFUTT AFB     CLOUDY    26  22  86 NW7       30.26R WCI  18
PLATTSMOUTH    CLOUDY    23  23  99 NW5       30.24S FOG     WCI  17
WAHOO          FAIR      22  18  83 N9        30.26R WCI  12
$$




USA.gov is the U.S. government's official web portal to all federal, state and local government web resources and services.